When you browse on this site, cookies collect data to enhance your experience and personalize the content and advertising you see.
Visit our Privacy Policy to learn more. By continuing to use the site, you agree to this use of cookies and data.
  • In Austria
  • List of Countries
  • For 7 days
  • Water Temperature
  • Weather Map
  • News
  • Weather Widgets
  • user-avatar
    Login

    Hourly Weather Envermeu

    Today, 15 December, Sunday

    Time Temperature Precipitation Wind Pressure Humidity
    00:00 +7°C° 0 mm 10 mps 735 mmHg 89%
    01:00 +7°C° 0.7 mm 11 mps 736 mmHg 89%
    02:00 +7°C° 0.7 mm 11 mps 736 mmHg 88%
    03:00 +7°C° 0.7 mm 12 mps 736 mmHg 87%
    04:00 +6°C° 0.2 mm 11 mps 737 mmHg 83%
    05:00 +5°C° 0.2 mm 9 mps 738 mmHg 80%
    06:00 +5°C° 0 mm 7 mps 739 mmHg 78%
    07:00 +4°C° 0 mm 8 mps 739 mmHg 79%
    08:00 +4°C° 0 mm 8 mps 740 mmHg 79%
    09:00 +3°C° 0 mm 9 mps 740 mmHg 80%
    10:00 +5°C° 0 mm 9 mps 741 mmHg 76%
    11:00 +5°C° 0 mm 9 mps 741 mmHg 72%
    12:00 +6°C° 0 mm 9 mps 742 mmHg 68%
    13:00 +6°C° 0 mm 8 mps 742 mmHg 71%
    14:00 +5°C° 0 mm 7 mps 742 mmHg 74%
    15:00 +5°C° 0 mm 6 mps 742 mmHg 76%
    16:00 +5°C° 0 mm 6 mps 742 mmHg 79%
    17:00 +5°C° 0 mm 6 mps 742 mmHg 82%
    18:00 +4°C° 0 mm 6 mps 742 mmHg 85%
    19:00 +4°C° 0 mm 6 mps 743 mmHg 85%
    20:00 +4°C° 0 mm 6 mps 743 mmHg 86%
    21:00 +4°C° 0 mm 6 mps 743 mmHg 86%
    22:00 +4°C° 0 mm 6 mps 743 mmHg 87%
    23:00 +4°C° 0 mm 6 mps 743 mmHg 88%

    Tomorrow, 16 December, Monday

    Time Temperature Precipitation Wind Pressure Humidity
    00:00 +4°C° 0 mm 6 mps 743 mmHg 88%
    01:00 +4°C° 0 mm 6 mps 743 mmHg 89%
    02:00 +4°C° 0 mm 6 mps 743 mmHg 90%
    03:00 +5°C° 0 mm 6 mps 743 mmHg 91%
    04:00 +5°C° 0 mm 6 mps 742 mmHg 92%
    05:00 +5°C° 0 mm 6 mps 742 mmHg 93%
    06:00 +5°C° 0 mm 6 mps 742 mmHg 94%
    07:00 +5°C° 0.1 mm 6 mps 742 mmHg 94%
    08:00 +5°C° 0.1 mm 6 mps 742 mmHg 93%
    09:00 +7°C° 0.1 mm 5 mps 742 mmHg 93%
    10:00 +7°C° 0.9 mm 5 mps 742 mmHg 94%
    11:00 +7°C° 0.9 mm 4 mps 741 mmHg 95%
    12:00 +8°C° 0.9 mm 3 mps 741 mmHg 95%
    13:00 +8°C° 1.5 mm 3 mps 741 mmHg 96%
    14:00 +8°C° 1.5 mm 3 mps 740 mmHg 96%
    15:00 +8°C° 1.5 mm 3 mps 740 mmHg 96%
    16:00 +8°C° 0.8 mm 3 mps 740 mmHg 96%
    17:00 +8°C° 0.8 mm 3 mps 739 mmHg 95%
    18:00 +7°C° 0.8 mm 4 mps 739 mmHg 95%
    19:00 +7°C° 0.5 mm 4 mps 739 mmHg 93%
    20:00 +7°C° 0.5 mm 4 mps 739 mmHg 92%
    21:00 +7°C° 0.5 mm 4 mps 739 mmHg 91%
    22:00 +8°C° 0 mm 4 mps 738 mmHg 90%
    23:00 +8°C° 0 mm 5 mps 738 mmHg 89%

    Day after tomorrow, 17 December, Tuesday

    Time Temperature Precipitation Wind Pressure Humidity
    00:00 +8°C° 0 mm 5 mps 738 mmHg 87%
    01:00 +8°C° 0.1 mm 5 mps 738 mmHg 87%
    02:00 +10°C° 0.1 mm 4 mps 738 mmHg 88%
    03:00 +10°C° 0.1 mm 4 mps 738 mmHg 88%
    04:00 +9°C° 0 mm 5 mps 737 mmHg 87%
    05:00 +9°C° 0 mm 5 mps 737 mmHg 87%
    06:00 +9°C° 0 mm 6 mps 737 mmHg 87%
    07:00 +9°C° 0 mm 7 mps 737 mmHg 85%
    08:00 +9°C° 0 mm 7 mps 738 mmHg 83%
    09:00 +9°C° 0 mm 8 mps 738 mmHg 81%
    10:00 +10°C° 0 mm 8 mps 738 mmHg 79%
    11:00 +11°C° 0 mm 8 mps 738 mmHg 78%
    12:00 +11°C° 0 mm 7 mps 738 mmHg 76%
    13:00 +11°C° 0 mm 7 mps 738 mmHg 79%
    14:00 +11°C° 0 mm 6 mps 739 mmHg 82%
    15:00 +10°C° 0 mm 5 mps 739 mmHg 85%
    16:00 +10°C° 0.1 mm 4 mps 739 mmHg 88%
    17:00 +8°C° 0.1 mm 4 mps 740 mmHg 90%
    18:00 +9°C° 0.1 mm 3 mps 740 mmHg 92%
    19:00 +7°C° 0.1 mm 4 mps 741 mmHg 90%
    20:00 +7°C° 0.1 mm 4 mps 742 mmHg 89%
    21:00 +7°C° 0.1 mm 4 mps 743 mmHg 87%
    22:00 +6°C° 0 mm 4 mps 743 mmHg 88%
    23:00 +5°C° 0 mm 4 mps 744 mmHg 88%

    18 December, Wednesday

    Time Temperature Precipitation Wind Pressure Humidity
    00:00 +5°C° 0 mm 3 mps 745 mmHg 89%
    01:00 +5°C° 0 mm 3 mps 745 mmHg 90%
    02:00 +4°C° 0 mm 3 mps 746 mmHg 91%
    03:00 +4°C° 0 mm 3 mps 746 mmHg 92%
    04:00 +4°C° 0 mm 3 mps 747 mmHg 92%
    05:00 +5°C° 0 mm 2 mps 747 mmHg 92%
    06:00 +4°C° 0 mm 2 mps 747 mmHg 91%
    07:00 +5°C° 0 mm 2 mps 747 mmHg 90%
    08:00 +5°C° 0 mm 2 mps 748 mmHg 90%
    09:00 +5°C° 0 mm 2 mps 748 mmHg 89%
    10:00 +5°C° 0 mm 3 mps 748 mmHg 86%
    11:00 +5°C° 0 mm 3 mps 747 mmHg 84%
    12:00 +7°C° 0 mm 3 mps 747 mmHg 81%
    13:00 +7°C° 0 mm 3 mps 746 mmHg 82%
    14:00 +6°C° 0 mm 4 mps 746 mmHg 83%
    15:00 +5°C° 0 mm 5 mps 745 mmHg 83%
    16:00 +5°C° 0 mm 5 mps 745 mmHg 86%
    17:00 +4°C° 0 mm 6 mps 744 mmHg 88%
    18:00 +3°C° 0 mm 6 mps 744 mmHg 90%
    19:00 +4°C° 0 mm 7 mps 743 mmHg 90%
    20:00 +4°C° 0 mm 7 mps 743 mmHg 91%
    21:00 +4°C° 0 mm 7 mps 742 mmHg 91%
    22:00 +5°C° 0 mm 8 mps 741 mmHg 91%
    23:00 +5°C° 0 mm 8 mps 741 mmHg 91%

    19 December, Thursday

    Time Temperature Precipitation Wind Pressure Humidity
    00:00 +6°C° 0 mm 8 mps 740 mmHg 92%
    01:00 +6°C° 0.2 mm 8 mps 740 mmHg 90%
    02:00 +6°C° 0.2 mm 8 mps 739 mmHg 89%
    03:00 +7°C° 0.2 mm 8 mps 738 mmHg 88%
    04:00 +7°C° 0.8 mm 8 mps 738 mmHg 89%
    05:00 +7°C° 0.8 mm 8 mps 738 mmHg 91%
    06:00 +7°C° 0.8 mm 8 mps 738 mmHg 93%
    07:00 +8°C° 0.3 mm 7 mps 738 mmHg 92%
    08:00 +8°C° 0.3 mm 7 mps 738 mmHg 91%
    09:00 +9°C° 0.3 mm 6 mps 738 mmHg 90%
    10:00 +9°C° 0 mm 7 mps 738 mmHg 87%
    11:00 +9°C° 0 mm 7 mps 738 mmHg 83%
    12:00 +10°C° 0 mm 7 mps 738 mmHg 80%
    13:00 +10°C° 0 mm 7 mps 738 mmHg 81%
    14:00 +9°C° 0 mm 6 mps 738 mmHg 83%
    15:00 +9°C° 0 mm 5 mps 738 mmHg 84%
    16:00 +8°C° 0 mm 4 mps 738 mmHg 87%
    17:00 +7°C° 0 mm 4 mps 738 mmHg 89%
    18:00 +7°C° 0 mm 3 mps 738 mmHg 91%
    19:00 +7°C° 0 mm 3 mps 737 mmHg 92%
    20:00 +7°C° 0 mm 3 mps 737 mmHg 92%
    21:00 +7°C° 0 mm 3 mps 737 mmHg 92%
    22:00 +6°C° 0 mm 4 mps 736 mmHg 93%
    23:00 +6°C° 0 mm 4 mps 736 mmHg 93%

    20 December, Friday

    Time Temperature Precipitation Wind Pressure Humidity
    00:00 +6°C° 0 mm 4 mps 736 mmHg 93%
    01:00 +6°C° 0 mm 4 mps 735 mmHg 93%
    02:00 +5°C° 0 mm 4 mps 734 mmHg 94%
    03:00 +5°C° 0 mm 4 mps 733 mmHg 94%
    04:00 +5°C° 0 mm 4 mps 733 mmHg 94%
    05:00 +5°C° 0 mm 3 mps 733 mmHg 95%
    06:00 +4°C° 0 mm 3 mps 732 mmHg 95%
    07:00 +5°C° 0 mm 4 mps 731 mmHg 95%
    08:00 +5°C° 0 mm 4 mps 731 mmHg 94%
    09:00 +5°C° 0 mm 5 mps 730 mmHg 94%
    10:00 +6°C° 0.1 mm 5 mps 729 mmHg 93%
    11:00 +6°C° 0.1 mm 5 mps 728 mmHg 92%
    12:00 +6°C° 0.1 mm 4 mps 728 mmHg 91%
    13:00 +6°C° 0.7 mm 5 mps 727 mmHg 91%
    14:00 +6°C° 0.7 mm 5 mps 727 mmHg 91%
    15:00 +5°C° 0.7 mm 6 mps 727 mmHg 91%
    16:00 +5°C° 0.9 mm 6 mps 727 mmHg 91%
    17:00 +5°C° 0.9 mm 6 mps 727 mmHg 91%
    18:00 +5°C° 0.9 mm 6 mps 728 mmHg 90%
    19:00 +5°C° 0.5 mm 6 mps 728 mmHg 90%
    20:00 +5°C° 0.5 mm 6 mps 729 mmHg 91%
    21:00 +7°C° 0.5 mm 6 mps 729 mmHg 91%
    22:00 +5°C° 0.2 mm 6 mps 730 mmHg 91%
    23:00 +5°C° 0.2 mm 6 mps 730 mmHg 90%
    Show more